Regional Weather Roundup
Issued by NWS Cleveland, OH

Home | Current Version | Previous Version | Text Only | Print | Product List | Glossary Off
Versions: 1 2 3 4 5 6 7 8 9 10 11 12 13 14 15 16 17 18 19 20 21 22 23 24 25 26 27 28 29 30 31 32 33 34 35 36 37 38 39 40 41 42 43 44 45 46 47 48 49 50

000
ASUS41 KCLE 101202
RWRCLE
OHIO REGIONAL WEATHER ROUNDUP
NATIONAL WEATHER SERVICE CLEVELAND, OH
800 AM EDT THU JUL 10 2014

NOTE: "FAIR" INDICATES FEW OR NO CLOUDS BELOW 12,000 FEET WITH NO
SIGNIFICANT WEATHER AND/OR OBSTRUCTIONS TO VISIBILITY.

OHZ001>008-015>018-024>027-034-035-043-044-101300-
   NORTHWEST OHIO

CITY           SKY/WX    TMP DP  RH WIND       PRES   REMARKS
DEFIANCE       FAIR      61  54  77 N6        30.12R
FINDLAY        FAIR      62  55  77 NW5       30.09R
TOLEDO EXPRESS FAIR      60  54  80 N6        30.11R
TOLEDO EXEC    FAIR      63  57  81 NW6       30.11R
LIMA           FAIR      63  56  78 N7        30.10R
$$

OHZ009>014-019>023-028>033-038-089-101300-
   NORTHEAST OHIO

CITY           SKY/WX    TMP DP  RH WIND       PRES   REMARKS
CLE-HOPKINS    FAIR      65  58  78 E3        30.12R
CLE-LAKEFRONT  FAIR      66  55  67 CALM      30.09R
CUY CO. ARPT   MOSUNNY   61  57  88 E7        30.11R
LORAIN-ELYRIA  FAIR      66  61  84 CALM      30.10R
ASHTABULA      FAIR      61  56  83 SE3       30.13R
AKRON-CANTON   FAIR      65  60  84 E6        30.11R HAZE
WOOSTER        FAIR      64  61  90 E3        30.11S FOG
MANSFIELD      PTSUNNY   63  62  97 S3        30.11R FOG
YOUNGSTOWN     FAIR      60  57  89 E6        30.12R
$$

OHZ042-051>053-060>062-070>072-077>081-101300-
  SOUTHWEST OHIO

CITY           SKY/WX    TMP DP  RH WIND       PRES   REMARKS
CINC-COVINGTON PTSUNNY   66  59  78 N5        30.09R
CINC-LUNKEN    FAIR      65  63  93 NE3       30.09R
HAMILTON       FAIR      66  60  81 VRB3      30.10R
DAYTON         FAIR      65  58  78 N6        30.11R
WRIGHT-PAT AFB FAIR      64  58  82 N5        30.10R
DAYTON GENERAL FAIR      65  59  81 NE9       30.09R
WILMINGTON     FAIR      63  59  87 NE5       30.09R
$$

OHZ036-037-039>041-045>050-054>059-063>069-073>076-082>088-101300-
  CENTRAL AND SOUTHEAST OHIO

CITY           SKY/WX    TMP DP  RH WIND       PRES   REMARKS
COLUMBUS       PTSUNNY   67  61  81 N3        30.09R
OSU AIRPORT    FAIR      65  60  84 N3        30.09R
BOLTON FIELD   MOSUNNY   64  61  88 N5        30.09S
RICKENBACK AFB FAIR      68  60  75 N5        30.08R
NEWARK         FAIR      65  61  87 N3        30.09R
MARION         FAIR      63  59  87 CALM      30.10R
LANCASTER      FAIR      65  62  90 CALM      30.09R
ZANESVILLE     FAIR      64  59  83 NE3       30.09R
NEW PHILLY     FAIR      63  61  93 CALM      30.11R
$$



USA.gov is the U.S. government's official web portal to all federal, state and local government web resources and services.